This demonstration page uses our WeatherBlox Daily Observations layout. Learn more.

Left ArrowRight Arrow

Hourly Observations for March 19, 2020

Temp ( °F °C ) Dew Point ( °F °C ) Humidity (%) Winds ( mph kmh ) Pressure ( in mb ) Visibility ( mi km ) Precip ( " mm )
12:45 am 00:45 Cloudy 22 -5.6 19 -7.2 89 89 NNE 8 13 30.24 1024 10 16 N/A
12:53 am 00:53 Cloudy 22 -5.6 18 -7.8 85 85 NNE 10 17 30.19 1022 10 16 N/A
1:01 am 01:01 Cloudy 22 -5.6 18 -7.8 85 85 NNE 9 15 30.24 1024 10 16 N/A
1:28 am 01:28 Cloudy 22 -5.6 18 -7.8 85 85 NNE 8 13 30.25 1024 10 16 N/A
1:53 am 01:53 Cloudy with Mist and Fog 21 -6.1 17 -8.3 85 85 NNE 9 15 30.20 1023 6 10 0.00 0.00
2:53 am 02:53 Cloudy 20 -6.7 17 -8.3 89 89 NE 7 11 30.23 1024 8 13 0.00 0.00
3:22 am 03:22 Cloudy 20 -6.7 17 -8.3 89 89 NE 6 9 30.29 1026 8 13 N/A
3:36 am 03:36 Cloudy 20 -6.7 17 -8.3 89 89 NE 8 13 30.30 1026 9 14 N/A
3:53 am 03:53 Cloudy 20 -6.7 16 -8.9 85 85 NNE 8 13 30.24 1024 8 13 N/A
4:48 am 04:48 undefined 19 -7 16 -9 86 86 undefined N/A 30.32 1027 N/A N/A
4:53 am 04:53 undefined 20 -6.7 16 -8.9 85 85 undefined N/A 30.26 1025 N/A N/A
5:46 am 05:46 Cloudy 19 -7.2 16 -8.9 88 88 NE 5 7 30.35 1028 10 16 N/A
5:53 am 05:53 Cloudy 20 -6.7 16 -8.9 85 85 NE 3 6 30.29 1026 10 16 N/A
6:53 am 06:53 Cloudy 18 -7.8 14 -10 84 84 N 6 9 30.33 1027 10 16 N/A
7:06 am 07:06 Cloudy with Light Snow 18 -7.8 14 -10 84 84 NNE 5 7 30.40 1029 8 13 0.00 0.00
7:53 am 07:53 Cloudy with Light Snow 17 -8.3 13 -10.6 84 84 NNE 3 6 30.35 1028 3 4 0.00 0.00
8:11 am 08:11 Cloudy with Light Snow 17 -8.3 14 -10 88 88 N 5 7 30.43 1031 3 5 0.00 0.00
8:24 am 08:24 Cloudy with Light Snow 18 -7.8 14 -10 84 84 NNE 5 7 30.44 1031 2 3 0.00 0.00
8:37 am 08:37 Cloudy with Light Snow 18 -7.8 14 -10 84 84 NNE 5 7 30.45 1031 2 3 0.00 0.00
8:53 am 08:53 Cloudy with Light Snow 18 -7.8 14 -10 84 84 NE 3 6 30.38 1029 2 2 0.00 0.00
9:09 am 09:09 Cloudy with Light Snow 19 -7.2 14 -10 81 81 NNE 5 7 30.45 1031 3 4 0.01 0.25
9:15 am 09:15 Cloudy with Light Snow 19 -7.2 14 -10 81 81 NNE 6 9 30.46 1032 3 5 0.01 0.25
9:30 am 09:30 Cloudy with Light Snow 19 -7.2 14 -10 81 81 NNE 5 7 30.46 1032 2 3 0.01 0.25
9:53 am 09:53 Cloudy with Light Snow 19 -7.2 14 -10 81 81 NNE 7 11 30.41 1030 3 4 0.01 0.25
10:08 am 10:08 Cloudy with Haze 19 -7.2 14 -10 81 81 NNE 8 13 30.48 1032 4 6 0.00 0.00
10:53 am 10:53 Cloudy with Haze 21 -6.1 15 -9.4 78 78 NE 9 15 30.44 1031 3 5 0.00 0.00
11:53 am 11:53 Cloudy with Haze 22 -5.6 16 -8.9 78 78 ENE 9 15 30.46 1032 6 10 N/A
12:06 pm 12:06 Cloudy with Haze 23 -5 17 -8.3 78 78 NE 10 17 30.51 1033 5 8 N/A
12:53 pm 12:53 Cloudy 22 -5.6 16 -8.9 78 78 ENE 10 17 30.48 1032 8 13 N/A
1:53 pm 13:53 Cloudy 23 -5 16 -8.9 74 74 ENE 12 19 30.50 1033 7 11 N/A
2:53 pm 14:53 Cloudy 23 -5 16 -8.9 74 74 ENE 13 20 30.51 1033 9 14 N/A
3:53 pm 15:53 Partly Cloudy 22 -5.6 14 -10 71 71 ENE 15 24 30.52 1034 10 16 N/A
4:53 pm 16:53 Partly Cloudy 22 -5.6 13 -10.6 68 68 ENE 15 24 30.54 1034 10 16 N/A
5:11 pm 17:11 Mostly Cloudy 22 -5.6 13 -10.6 68 68 ENE 14 22 30.58 1036 10 16 N/A
5:53 pm 17:53 Mostly Cloudy 21 -6.1 13 -10.6 71 71 ENE 13 20 30.55 1035 10 16 N/A
6:09 pm 18:09 Partly Cloudy 21 -6.1 12 -11.1 68 68 E 17 28 30.61 1037 10 16 N/A
6:17 pm 18:17 Mostly Cloudy 20 -6.7 12 -11.1 71 71 E 15 24 30.62 1037 10 16 N/A
6:26 pm 18:26 Mostly Sunny 20 -6.7 12 -11.1 71 71 E 15 24 30.62 1037 10 16 N/A
6:53 pm 18:53 Sunny 19 -7.2 11 -11.7 71 71 ENE 15 24 30.58 1035 10 16 N/A
7:53 pm 19:53 Clear 16 -8.9 8 -13.3 71 71 ENE 14 22 30.59 1036 10 16 N/A
8:53 pm 20:53 Clear 13 -10.6 6 -14.4 74 74 ENE 13 20 30.60 1036 10 16 N/A
9:53 pm 21:53 Partly Cloudy 12 -11.1 5 -15 73 73 ENE 15 24 30.61 1037 10 16 N/A
10:53 pm 22:53 Cloudy 13 -10.6 6 -14.4 74 74 E 17 28 30.60 1036 10 16 N/A
11:53 pm 23:53 Cloudy 12 -11.1 6 -14.4 77 77 E 17 28 30.60 1036 10 16 N/A

Powered by AerisWeather